Time,TemperatureF,DewpointF,PressureIn,WindDirection,WindDirectionDegrees,WindSpeedMPH,WindSpeedGustMPH,Humidity,HourlyPrecipIn,Conditions,Clouds,dailyrainin,SolarRadiationWatts/m^2,SoftwareType,DateUTC
2013-03-19 00:12:00,48.0,40.0,-100.00,NNW,347,2.0,3.0,74,0.00,,,0.00,0.000000,,2013-03-19 07:12:00,
2013-03-19 00:21:00,48.0,40.0,-100.00,NNW,347,2.0,3.0,74,0.00,,,0.00,0.000000,,2013-03-19 07:21:00,
2013-03-19 00:32:00,48.0,40.0,-100.00,NNW,347,2.0,3.0,74,0.00,,,0.00,0.000000,,2013-03-19 07:32:00,
2013-03-19 00:42:00,48.0,40.0,-100.00,NNW,347,2.0,3.0,74,0.00,,,0.00,0.000000,,2013-03-19 07:42:00,
2013-03-19 00:51:00,47.0,41.0,-100.00,WSW,239,1.0,3.0,78,0.00,,,0.00,0.000000,,2013-03-19 07:51:00,
2013-03-19 01:12:00,47.0,41.0,-100.00,WSW,239,1.0,3.0,78,0.00,,,0.00,0.000000,,2013-03-19 08:12:00,
2013-03-19 01:22:00,47.0,41.0,-100.00,WSW,239,1.0,3.0,78,0.00,,,0.00,0.000000,,2013-03-19 08:22:00,
2013-03-19 01:32:00,47.0,41.0,-100.00,WSW,239,1.0,3.0,78,0.00,,,0.00,0.000000,,2013-03-19 08:32:00,
2013-03-19 01:42:00,47.0,41.0,-100.00,WSW,239,1.0,3.0,78,0.00,,,0.00,0.000000,,2013-03-19 08:42:00,
2013-03-19 01:51:00,47.0,44.0,-100.00,NNW,344,0.0,4.0,89,0.00,,,0.00,0.000000,,2013-03-19 08:51:00,
2013-03-19 02:12:00,47.0,44.0,-100.00,NNW,344,0.0,4.0,89,0.00,,,0.00,0.000000,,2013-03-19 09:12:00,
2013-03-19 02:22:00,47.0,44.0,-100.00,NNW,344,0.0,4.0,89,0.00,,,0.00,0.000000,,2013-03-19 09:22:00,
2013-03-19 02:32:00,47.0,44.0,-100.00,NNW,344,0.0,4.0,89,0.00,,,0.00,0.000000,,2013-03-19 09:32:00,
2013-03-19 02:42:00,47.0,44.0,-100.00,NNW,344,0.0,4.0,89,0.00,,,0.00,0.000000,,2013-03-19 09:42:00,
2013-03-19 02:51:00,45.0,41.0,-100.00,West,279,1.0,5.0,87,0.00,,,0.00,0.000000,,2013-03-19 09:51:00,
2013-03-19 03:23:00,45.0,41.0,-100.00,West,279,1.0,5.0,87,0.00,,,0.00,0.000000,,2013-03-19 10:23:00,
2013-03-19 03:32:00,45.0,41.0,-100.00,West,279,1.0,5.0,87,0.00,,,0.00,0.000000,,2013-03-19 10:32:00,
2013-03-19 03:42:00,45.0,41.0,-100.00,West,279,1.0,5.0,87,0.00,,,0.00,0.000000,,2013-03-19 10:42:00,
2013-03-19 03:51:00,45.0,42.0,-100.00,West,261,2.0,5.0,90,0.00,,,0.00,0.000000,,2013-03-19 10:51:00,
2013-03-19 04:22:00,45.0,42.0,-100.00,West,261,2.0,5.0,90,0.00,,,0.00,0.000000,,2013-03-19 11:22:00,
2013-03-19 04:32:00,45.0,42.0,-100.00,West,261,2.0,5.0,90,0.00,,,0.00,0.000000,,2013-03-19 11:32:00,
2013-03-19 04:42:00,45.0,42.0,-100.00,West,261,2.0,5.0,90,0.00,,,0.00,0.000000,,2013-03-19 11:42:00,
2013-03-19 04:51:00,43.0,41.0,-100.00,North,357,0.0,3.0,94,0.00,,,0.00,0.000000,,2013-03-19 11:51:00,
2013-03-19 05:12:00,43.0,41.0,-100.00,North,357,0.0,3.0,94,0.00,,,0.00,0.000000,,2013-03-19 12:12:00,
2013-03-19 05:22:00,43.0,41.0,-100.00,North,357,0.0,3.0,94,0.00,,,0.00,0.000000,,2013-03-19 12:22:00,
2013-03-19 05:32:00,43.0,41.0,-100.00,North,357,0.0,3.0,94,0.00,,,0.00,0.000000,,2013-03-19 12:32:00,
2013-03-19 05:42:00,43.0,41.0,-100.00,North,357,0.0,3.0,94,0.00,,,0.00,0.000000,,2013-03-19 12:42:00,
2013-03-19 05:51:00,43.0,41.0,-100.00,West,273,1.0,5.0,92,0.00,,,0.00,0.000000,,2013-03-19 12:51:00,
2013-03-19 06:22:00,43.0,41.0,-100.00,West,273,1.0,5.0,92,0.00,,,0.00,0.000000,,2013-03-19 13:22:00,
2013-03-19 06:32:00,43.0,41.0,-100.00,West,273,1.0,5.0,92,0.00,,,0.00,0.000000,,2013-03-19 13:32:00,
2013-03-19 06:42:00,43.0,41.0,-100.00,West,273,1.0,5.0,92,0.00,,,0.00,0.000000,,2013-03-19 13:42:00,
2013-03-19 06:51:00,42.0,41.0,-100.00,South,182,0.0,2.0,95,0.00,,,0.00,0.000000,,2013-03-19 13:51:00,
2013-03-19 07:12:00,42.0,41.0,-100.00,South,182,0.0,2.0,95,0.00,,,0.00,0.000000,,2013-03-19 14:12:00,
2013-03-19 07:22:00,42.0,41.0,-100.00,South,182,0.0,2.0,95,0.00,,,0.00,0.000000,,2013-03-19 14:22:00,
2013-03-19 07:32:00,42.0,41.0,-100.00,South,182,0.0,2.0,95,0.00,,,0.00,0.000000,,2013-03-19 14:32:00,
2013-03-19 07:42:00,42.0,41.0,-100.00,South,182,0.0,2.0,95,0.00,,,0.00,0.000000,,2013-03-19 14:42:00,
2013-03-19 07:51:00,41.0,40.0,-100.00,NW,310,2.0,5.0,96,0.00,,,0.00,10.000000,,2013-03-19 14:51:00,
2013-03-19 08:22:00,41.0,40.0,-100.00,NW,310,2.0,5.0,96,0.00,,,0.00,10.000000,,2013-03-19 15:22:00,
2013-03-19 08:33:00,41.0,40.0,-100.00,NW,310,2.0,5.0,96,0.00,,,0.00,10.000000,,2013-03-19 15:33:00,
2013-03-19 08:43:00,41.0,40.0,-100.00,NW,310,2.0,5.0,96,0.00,,,0.00,10.000000,,2013-03-19 15:43:00,
2013-03-19 08:51:00,44.0,43.0,-100.00,ESE,119,2.0,4.0,96,0.00,,,0.00,70.000000,,2013-03-19 15:51:00,
2013-03-19 09:23:00,44.0,43.0,-100.00,ESE,119,2.0,4.0,96,0.00,,,0.00,70.000000,,2013-03-19 16:23:00,
2013-03-19 09:33:00,44.0,43.0,-100.00,ESE,119,2.0,4.0,96,0.00,,,0.00,70.000000,,2013-03-19 16:33:00,
2013-03-19 09:43:00,44.0,43.0,-100.00,ESE,119,2.0,4.0,96,0.00,,,0.00,70.000000,,2013-03-19 16:43:00,
2013-03-19 09:51:00,48.0,44.0,-100.00,ESE,114,2.0,4.0,86,0.00,,,0.00,195.000000,,2013-03-19 16:51:00,
2013-03-19 10:23:00,48.0,44.0,-100.00,ESE,114,2.0,4.0,86,0.00,,,0.00,195.000000,,2013-03-19 17:23:00,
2013-03-19 10:34:00,48.0,44.0,-100.00,ESE,114,2.0,4.0,86,0.00,,,0.00,195.000000,,2013-03-19 17:34:00,
2013-03-19 10:43:00,48.0,44.0,-100.00,ESE,114,2.0,4.0,86,0.00,,,0.00,195.000000,,2013-03-19 17:43:00,
2013-03-19 10:51:00,49.0,43.0,-100.00,North,0,4.0,6.0,80,0.00,,,0.00,195.000000,,2013-03-19 17:51:00,
2013-03-19 11:13:00,49.0,43.0,-100.00,North,0,4.0,6.0,80,0.00,,,0.00,195.000000,,2013-03-19 18:13:00,
2013-03-19 11:23:00,49.0,43.0,-100.00,North,0,4.0,6.0,80,0.00,,,0.00,195.000000,,2013-03-19 18:23:00,
2013-03-19 11:33:00,49.0,43.0,-100.00,North,0,4.0,6.0,80,0.00,,,0.00,195.000000,,2013-03-19 18:33:00,
2013-03-19 11:42:00,49.0,43.0,-100.00,North,0,4.0,6.0,80,0.00,,,0.00,195.000000,,2013-03-19 18:42:00,
2013-03-19 11:51:00,50.0,43.0,-100.00,SSW,207,1.0,5.0,77,0.00,,,0.00,117.000000,,2013-03-19 18:51:00,
2013-03-19 12:22:00,50.0,43.0,-100.00,SSW,207,1.0,5.0,77,0.00,,,0.00,117.000000,,2013-03-19 19:22:00,
2013-03-19 12:32:00,50.0,43.0,-100.00,SSW,207,1.0,5.0,77,0.00,,,0.00,117.000000,,2013-03-19 19:32:00,
2013-03-19 12:42:00,50.0,43.0,-100.00,SSW,207,1.0,5.0,77,0.00,,,0.00,117.000000,,2013-03-19 19:42:00,
2013-03-19 12:51:00,48.0,44.0,-100.00,NNE,15,3.0,6.0,85,0.03,,,0.03,63.000000,,2013-03-19 19:51:00,
2013-03-19 13:22:00,48.0,44.0,-100.00,NNE,15,3.0,6.0,85,0.03,,,0.03,63.000000,,2013-03-19 20:22:00,
2013-03-19 13:32:00,48.0,44.0,-100.00,NNE,15,3.0,6.0,85,0.03,,,0.03,63.000000,,2013-03-19 20:32:00,
2013-03-19 13:42:00,48.0,44.0,-100.00,NNE,15,3.0,6.0,85,0.03,,,0.03,63.000000,,2013-03-19 20:42:00,
2013-03-19 13:51:00,49.0,48.0,-100.00,SSW,195,1.0,7.0,96,0.07,,,0.10,95.000000,,2013-03-19 20:51:00,
2013-03-19 14:22:00,49.0,48.0,-100.00,SSW,195,1.0,7.0,96,0.07,,,0.10,95.000000,,2013-03-19 21:22:00,
2013-03-19 14:33:00,49.0,48.0,-100.00,SSW,195,1.0,7.0,96,0.07,,,0.10,95.000000,,2013-03-19 21:33:00,
2013-03-19 14:42:00,49.0,48.0,-100.00,SSW,195,1.0,7.0,96,0.07,,,0.10,95.000000,,2013-03-19 21:42:00,
2013-03-19 14:51:00,50.0,49.0,-100.00,South,185,1.0,6.0,96,0.04,,,0.14,95.000000,,2013-03-19 21:51:00,
2013-03-19 15:23:00,50.0,49.0,-100.00,South,185,1.0,6.0,96,0.04,,,0.14,95.000000,,2013-03-19 22:23:00,
2013-03-19 15:33:00,50.0,49.0,-100.00,South,185,1.0,6.0,96,0.04,,,0.14,95.000000,,2013-03-19 22:33:00,
2013-03-19 15:43:00,50.0,49.0,-100.00,South,185,1.0,6.0,96,0.04,,,0.14,95.000000,,2013-03-19 22:43:00,
2013-03-19 15:51:00,49.0,48.0,-100.00,SSW,200,3.0,6.0,96,0.02,,,0.16,63.000000,,2013-03-19 22:51:00,
2013-03-19 16:22:00,49.0,48.0,-100.00,SSW,200,3.0,6.0,96,0.02,,,0.16,63.000000,,2013-03-19 23:22:00,
2013-03-19 16:32:00,49.0,48.0,-100.00,SSW,200,3.0,6.0,96,0.02,,,0.16,63.000000,,2013-03-19 23:32:00,
2013-03-19 16:42:00,49.0,48.0,-100.00,SSW,200,3.0,6.0,96,0.02,,,0.16,63.000000,,2013-03-19 23:42:00,
2013-03-19 16:51:00,51.0,50.0,-100.00,SSW,193,1.0,6.0,95,0.01,,,0.17,50.000000,,2013-03-19 23:51:00,
2013-03-19 17:22:00,51.0,50.0,-100.00,SSW,193,1.0,6.0,95,0.01,,,0.17,50.000000,,2013-03-20 00:22:00,
2013-03-19 17:32:00,51.0,50.0,-100.00,SSW,193,1.0,6.0,95,0.01,,,0.17,50.000000,,2013-03-20 00:32:00,
2013-03-19 17:42:00,51.0,50.0,-100.00,SSW,193,1.0,6.0,95,0.01,,,0.17,50.000000,,2013-03-20 00:42:00,
2013-03-19 17:51:00,51.0,50.0,-100.00,WNW,301,3.0,6.0,95,0.00,,,0.17,51.000000,,2013-03-20 00:51:00,
2013-03-19 18:12:00,51.0,50.0,-100.00,WNW,301,3.0,6.0,95,0.00,,,0.17,51.000000,,2013-03-20 01:12:00,
2013-03-19 18:22:00,51.0,50.0,-100.00,WNW,301,3.0,6.0,95,0.00,,,0.17,51.000000,,2013-03-20 01:22:00,
2013-03-19 18:32:00,51.0,50.0,-100.00,WNW,301,3.0,6.0,95,0.00,,,0.17,51.000000,,2013-03-20 01:32:00,
2013-03-19 18:42:00,51.0,50.0,-100.00,WNW,301,3.0,6.0,95,0.00,,,0.17,51.000000,,2013-03-20 01:42:00,
2013-03-19 18:51:00,51.0,50.0,-100.00,SSW,193,1.0,6.0,96,0.00,,,0.17,15.000000,,2013-03-20 01:51:00,
2013-03-19 19:12:00,51.0,50.0,-100.00,SSW,193,1.0,6.0,96,0.00,,,0.17,15.000000,,2013-03-20 02:12:00,
2013-03-19 19:22:00,51.0,50.0,-100.00,SSW,193,1.0,6.0,96,0.00,,,0.17,15.000000,,2013-03-20 02:22:00,
2013-03-19 19:32:00,51.0,50.0,-100.00,SSW,193,1.0,6.0,96,0.00,,,0.17,15.000000,,2013-03-20 02:32:00,
2013-03-19 19:42:00,51.0,50.0,-100.00,SSW,193,1.0,6.0,96,0.00,,,0.17,15.000000,,2013-03-20 02:42:00,
2013-03-19 19:51:00,51.0,42.0,-100.00,SW,215,2.0,12.0,72,0.00,,,0.17,0.000000,,2013-03-20 02:51:00,
2013-03-19 20:22:00,51.0,42.0,-100.00,SW,215,2.0,12.0,72,0.00,,,0.17,0.000000,,2013-03-20 03:22:00,
2013-03-19 20:33:00,51.0,42.0,-100.00,SW,215,2.0,12.0,72,0.00,,,0.17,0.000000,,2013-03-20 03:33:00,
2013-03-19 20:42:00,51.0,42.0,-100.00,SW,215,2.0,12.0,72,0.00,,,0.17,0.000000,,2013-03-20 03:42:00,
2013-03-19 20:51:00,49.0,45.0,-100.00,WNW,293,2.0,8.0,85,0.00,,,0.17,0.000000,,2013-03-20 03:51:00,
2013-03-19 21:12:00,49.0,45.0,-100.00,WNW,293,2.0,8.0,85,0.00,,,0.17,0.000000,,2013-03-20 04:12:00,
2013-03-19 21:22:00,49.0,45.0,-100.00,WNW,293,2.0,8.0,85,0.00,,,0.17,0.000000,,2013-03-20 04:22:00,
2013-03-19 21:32:00,49.0,45.0,-100.00,WNW,293,2.0,8.0,85,0.00,,,0.17,0.000000,,2013-03-20 04:32:00,
2013-03-19 21:43:00,49.0,45.0,-100.00,WNW,293,2.0,8.0,85,0.00,,,0.17,0.000000,,2013-03-20 04:43:00,
2013-03-19 21:51:00,49.0,42.0,-100.00,West,270,2.0,9.0,78,0.00,,,0.17,0.000000,,2013-03-20 04:51:00,
2013-03-19 22:22:00,49.0,42.0,-100.00,West,270,2.0,9.0,78,0.00,,,0.17,0.000000,,2013-03-20 05:22:00,
2013-03-19 22:32:00,49.0,42.0,-100.00,West,270,2.0,9.0,78,0.00,,,0.17,0.000000,,2013-03-20 05:32:00,
2013-03-19 22:42:00,49.0,42.0,-100.00,West,270,2.0,9.0,78,0.00,,,0.17,0.000000,,2013-03-20 05:42:00,
2013-03-19 22:51:00,47.0,39.0,-100.00,West,271,1.0,5.0,75,0.01,,,0.18,0.000000,,2013-03-20 05:51:00,
2013-03-19 23:12:00,47.0,39.0,-100.00,West,271,1.0,5.0,75,0.01,,,0.18,0.000000,,2013-03-20 06:12:00,
2013-03-19 23:22:00,47.0,39.0,-100.00,West,271,1.0,5.0,75,0.01,,,0.18,0.000000,,2013-03-20 06:22:00,
2013-03-19 23:32:00,47.0,39.0,-100.00,West,271,1.0,5.0,75,0.01,,,0.18,0.000000,,2013-03-20 06:32:00,
2013-03-19 23:42:00,47.0,39.0,-100.00,West,271,1.0,5.0,75,0.01,,,0.18,0.000000,,2013-03-20 06:42:00,
2013-03-19 23:51:00,46.0,44.0,-100.00,West,264,1.0,4.0,94,0.03,,,0.21,0.000000,,2013-03-20 06:51:00,